Location: Sungai Laei
(2.6000°N, 113.7167°E)
Time: 13:59:20
(UTC+00:00)

CZ-2C R/B - Pass Details

Date: 09 October 2022
Orbit: 703 x 908 km, 98.1° (Epoch: 08 December)

Event Time Altitude Azimuth Distance (km) Brightness Sun altitude
Rises 21:14:20 0° 352° (N) 3,314 6.1 -14.7°
Reaches altitude 10° 21:17:02 10° 340° (NNW) 2,350 5.3 -14.0°
Maximum altitude 21:21:19 27° 284° (WNW) 1,446 3.8 -13.0°
Drops below altitude 10° 21:25:27 10° 227° (SW) 2,253 5.1 -11.9°
Sets 21:28:00 0° 214° (SW) 3,151 5.9 -11.3°
